Regional Weather Roundup
Issued by NWS

Home | Current Version | Previous Version | Text Only | Print | Product List | Glossary Off
Versions: 1 2 3 4 5 6 7 8 9 10 11 12 13 14 15 16 17 18 19 20 21 22 23 24 25 26 27 28 29 30 31 32 33 34 35 36 37 38 39 40 41 42 43 44 45 46 47 48 49 50

000
ASUS45 KTFX 230804
RWRMT
MONTANA HOURLY WEATHER ROUNDUP
NATIONAL WEATHER SERVICE GREAT FALLS MT
204 AM MDT THU OCT 23 2014

NOTE: "FAIR" INDICATES FEW OR NO CLOUDS BELOW 12000 FEET WITH NO
SIGNIFICANT WEATHER AND/OR OBSTRUCTIONS TO VISIBILITY.

* THESE STATIONS ARE NOT UNDER NWS QUALITY CONTROL. THEY DO NOT
   REPORT WEATHER SUCH AS PRECIPITATION OR FOG.

MTZ001>007-043-230900-
WEST OF THE DIVIDE
CITY           SKY/WX    TMP DP  RH WIND       PRES   REMARKS
KALISPELL      CLOUDY    54  39  57 SW9       29.83R
MISSOULA       CLOUDY    52  37  57 SE7       29.91R
BUTTE          CLOUDY    45  28  51 SW7       29.99F
MULLAN PASS    RAIN      37  37 100 S13G24    29.88F VSB 1 1/4 WCI  29
* ESSEX        N/A       43  39  86 NW2        N/A
* LINCOLN      N/A       37  30  76 N3         N/A
* LOOKOUT PASS N/A       43  41  93 S7G20      N/A
* POLSON       N/A       50  36  59 S2         N/A
* RONAN APT    CLOUDY    55  37  51 SE5        N/A
* SEELEY LAKE  N/A       36  34  92 E3G10      N/A
* THOMP F APT  CLOUDY    39  24  55 NE6        N/A   WCI  35
$$

MTZ008-052>055-230900-
SOUTHWEST MONTANA
CITY           SKY/WX    TMP DP  RH WIND       PRES   REMARKS
BOZEMAN        CLOUDY    36  28  73 SE7       29.99F WCI  30
DILLON         CLOUDY    41  28  60 CALM      30.01F
W YELLOWSTONE  CLOUDY    27  25  92 CALM      30.17F
* THREE FORKS  CLOUDY    54  30  40 S25G38     N/A
* BOULDER HILL N/A       41  25  53 SW16       N/A
* MONIDA PASS  N/A       37  24  59 SE17G22    N/A   WCI  27
* RAYNOLDS PAS N/A       36  18  48 SE14       N/A   WCI  27
* WHITEHALL    N/A       47  28  48 S4G15      N/A
* WISE RIVER   N/A       36  32  85 SE6        N/A   WCI  31
$$

MTZ009>010-012-014-046-048-049-054-230900-
EAST SLOPES AND CENTRAL MONTANA
CITY           SKY/WX    TMP DP  RH WIND       PRES   REMARKS
CUT BANK       CLOUDY    46  36  68 SW5       29.74F
GREAT FALLS    PTCLDY    50  30  46 SW13      29.81F
HELENA         PTCLDY    54  28  37 S16G26    29.88F
MALMSTROM AFB  PTCLDY    52  32  47 S26G33    29.82S
* CONRAD       MOCLDY    48  39  71 S13G21     N/A
* DEARBORN     N/A       57  31  37 S14G20     N/A
* EAST GLACIER N/A       51  32  48 W20G34     N/A
* MONARCH      N/A       47  18  31 S17G31     N/A
* PENDROY      N/A       47  35  63 SW12       N/A
* ROGERS PASS  N/A       45  28  51 SE9G22     N/A
* SAINT MARY   N/A       52  32  47 SW8G28     N/A
* SWEET GRASS  N/A       48  36  63 S13G23     N/A
$$

MTZ011-013-016-021-035-040-045-047-050-051-230900-
NORTH CENTRAL MONTANA
CITY           SKY/WX    TMP DP  RH WIND       PRES   REMARKS
HAVRE          PTCLDY    54  34  47 SW17      29.75F
LEWISTOWN      CLEAR     54  28  37 SW16      29.88F
* CHESTER      N/A       44  34  68 S2         N/A
* DENTON       N/A       46  30  54 S12        N/A
* GEYSER       N/A       53  27  37 SW19G26    N/A
* JUDITH GAP   N/A       44  26  49 SE7        N/A
* LOMA         N/A       54  33  45 S10G17     N/A
$$

MTZ017>020-022>027-061-062-230900-
NORTHEAST MONTANA
CITY           SKY/WX    TMP DP  RH WIND       PRES   REMARKS
GLASGOW        CLEAR     37  30  76 SE8       29.82F WCI  31
GLENDIVE       CLEAR     36  28  73 S3        29.90S
JORDAN         CLEAR     28  23  81 CALM      29.86F
SIDNEY         CLEAR     34  30  85 S6        29.90R WCI  29
WOLF POINT     CLEAR     30  27  89 CALM      29.86F
* BEAVER HILL  N/A       46  27  48 S12        N/A
* CIRCLE       N/A       39  30  70 N/A        N/A
* LINDSAY DVD  N/A       44  27  51 SW1        N/A
* NAVAJO       N/A       41  31  68 W13        N/A
$$

MTZ028>042-056>058-230900-
SOUTHCENTRAL AND SOUTHEAST MONTANA
CITY           SKY/WX    TMP DP  RH WIND       PRES   REMARKS
BAKER          CLEAR     37  28  70 VRB6      29.92F WCI  32
BILLINGS       PTCLDY    50  21  32 SW9       29.93F
LIVINGSTON     MOCLDY    52  21  30 SW25G35   29.97S
MILES CITY     CLEAR     37  27  67 SE9       29.92R WCI  30
* LAUREL APT   PTCLDY    46  19  34 SW8        N/A
* ROUNDUP APT  PTCLDY    45  25  45 S7         N/A
* ALZADA       N/A       38  28  67 E6         N/A   WCI  33
* HYSHAM       N/A       48  24  39 W2         N/A
* LAME DEER    N/A       45  23  42 SW6        N/A
* REED POINT   N/A       32  26  79 W3         N/A
* ROSCOE HILL  N/A       53  15  22 S16G26     N/A
$$

REGIONAL REPORTS...DAKOTAS
CITY           SKY/WX    TMP DP  RH WIND       PRES   REMARKS
WILLISTON      CLEAR     39  32  76 SW8       29.87R WCI  33
DICKINSON      CLEAR     37  27  67 SW10      29.89F WCI  30
BEACH          N/A       36  28  73 S7        29.91S WCI  30
CROSBY         N/A       37  36  96 S12       29.84R WCI  29
TIOGA          CLEAR     34  32  92 W6        29.88S WCI  29
BISMARCK       CLEAR     39  34  82 W5        29.92S WCI  35
GRAND FORKS    CLOUDY    48  45  89 SW8       29.84S
FARGO          CLEAR     46  45  96 SW7       29.89S
BUFFALO SD     CLEAR     43  27  53 W7        29.89F
RAPID CITY     CLEAR     43  34  71 NW8       30.02S
$$

REGIONAL REPORTS...WYOMING/IDAHO/WASHINGTON
CITY           SKY/WX    TMP DP  RH WIND       PRES   REMARKS
GILLETTE       PTCLDY    41  21  45 SE6       30.01S
SHERIDAN       CLEAR     34  21  59 SW3       29.97S
CODY           PTCLDY    54  19  25 SW17G23   30.02F
YELLOWSTONE LA MOCLDY    27  23  85 NW3       30.22S
SALMON         CLOUDY   N/A N/A N/A N/A        N/A
MULLAN PASS    RAIN      37  37 100 S13G24    29.88S VSB 1 1/4 WCI  29
SAND POINT     RAIN      48  48 100 SE3       29.79S
SPOKANE        CLOUDY    52  45  77 S15       29.75R

$$




USA.gov is the U.S. government's official web portal to all federal, state and local government web resources and services.